Weather History for Kaiser, MO

Change the Weather History Date:

Sunday, January 8, 2012

  Actual Average Record
Temperature  
Mean Temperature 34 °F -  
Max Temperature 41 °F 39 °F 69 °F (2003)
Min Temperature 28 °F 23 °F 15 °F (1999)
Degree Days  
Heating Degree Days 30    
Moisture  
Dew Point 25 °F    
Average Humidity 66    
Maximum Humidity 80    
Minimum Humidity 56    
Precipitation  
Precipitation 0.00 in - - ()
Sea Level Pressure  
Sea Level Pressure 30.26 in    
Wind  
Wind Speed 5 mph (NE)    
Max Wind Speed 9 mph    
Max Gust Speed -    
Visibility 10 miles    
Events      
Averages and records for this station are not official NWS values.
T = Trace of Precipitation, MM = Missing Value Source: NWS Daily Summary

Daily Weather History Graph

Daily Weather History Graph

Search for Another Location

Airport:

Trip Planner

Search our weather history database for the weather conditions in past years. The results will help you decide how hot, cold, wet, or windy it might be!

Date:

Astronomy

Jan. 08, 2012 Rise Set
Actual Time 7:26 AM CST 5:06 PM CST
Civil Twilight 6:57 AM CST 5:36 PM CST
Nautical Twilight 6:24 AM CST 6:08 PM CST
Astronomical Twilight 5:52 AM CST 6:40 PM CST
Moon 4:50 PM CST (1/8) 6:45 AM CST (1/8)
Length of Visible Light 10h 38m
Length of Day
9h 40m
Full, 100% of the Moon is Illuminated
Jan 8
Full
Jan 9
Full
Jan 16
Last Quarter
Jan 23
New
Jan 30
First Quarter

Hourly Weather History & Observations

Time (CST) Temp. Windchill Dew Point Humidity Pressure Visibility Wind Dir Wind Speed Gust Speed Precip Events Conditions
12:15 AM 35.6 °F 30.7 °F 21.2 °F 56% 30.22 in 10.0 mi ENE 5.8 mph - N/A   Partly Cloudy
12:35 AM 35.6 °F 32.8 °F 21.2 °F 56% 30.22 in 10.0 mi ENE 3.5 mph - N/A   Clear
12:55 AM 35.6 °F 32.8 °F 21.2 °F 56% 30.22 in 10.0 mi ENE 3.5 mph - N/A   Clear
1:15 AM 33.8 °F 28.6 °F 21.2 °F 60% 30.22 in 10.0 mi NNE 5.8 mph - N/A   Clear
1:35 AM 33.8 °F 29.6 °F 21.2 °F 60% 30.23 in 10.0 mi NE 4.6 mph - N/A   Clear
1:55 AM 33.8 °F 28.6 °F 21.2 °F 60% 30.23 in 10.0 mi ENE 5.8 mph - N/A   Clear
2:15 AM 33.8 °F 29.6 °F 21.2 °F 60% 30.23 in 10.0 mi ENE 4.6 mph - N/A   Clear
2:35 AM 30.2 °F 24.3 °F 21.2 °F 69% 30.23 in 10.0 mi NE 5.8 mph - N/A   Clear
2:55 AM 32.0 °F 27.5 °F 21.2 °F 64% 30.24 in 10.0 mi NE 4.6 mph - N/A   Clear
3:15 AM 33.8 °F 30.8 °F 21.2 °F 60% 30.24 in 10.0 mi NE 3.5 mph - N/A   Clear
3:35 AM 32.0 °F 27.5 °F 21.2 °F 64% 30.24 in 10.0 mi NE 4.6 mph - N/A   Clear
4:15 AM 32.0 °F 28.7 °F 21.2 °F 64% 30.25 in 10.0 mi NNE 3.5 mph - N/A   Clear
4:35 AM 30.2 °F 24.3 °F 21.2 °F 69% 30.24 in 10.0 mi ENE 5.8 mph - N/A   Clear
4:55 AM 28.4 °F 22.2 °F 21.2 °F 74% 30.24 in 10.0 mi NE 5.8 mph - N/A   Clear
5:15 AM 30.2 °F 24.3 °F 23.0 °F 75% 30.24 in 10.0 mi ENE 5.8 mph - N/A   Partly Cloudy
5:35 AM 30.2 °F 25.4 °F 23.0 °F 75% 30.25 in 10.0 mi NE 4.6 mph - N/A   Mostly Cloudy
6:15 AM 30.2 °F 25.4 °F 24.8 °F 80% 30.25 in 10.0 mi NE 4.6 mph - N/A   Overcast
6:35 AM 32.0 °F 27.5 °F 24.8 °F 75% 30.26 in 10.0 mi NE 4.6 mph - N/A   Overcast
6:55 AM 32.0 °F 27.5 °F 24.8 °F 75% 30.26 in 10.0 mi ENE 4.6 mph - N/A   Overcast
7:15 AM 32.0 °F 27.5 °F 24.8 °F 75% 30.27 in 10.0 mi NE 4.6 mph - N/A   Overcast
7:35 AM 32.0 °F 26.4 °F 24.8 °F 75% 30.27 in 10.0 mi NE 5.8 mph - N/A   Overcast
7:55 AM 32.0 °F 27.5 °F 24.8 °F 75% 30.28 in 10.0 mi NE 4.6 mph - N/A   Overcast
8:15 AM 32.0 °F 25.6 °F 24.8 °F 75% 30.27 in 10.0 mi ENE 6.9 mph - N/A   Overcast
8:35 AM 33.8 °F 28.6 °F 24.8 °F 70% 30.29 in 10.0 mi NE 5.8 mph - N/A   Overcast
8:55 AM 33.8 °F 27.7 °F 24.8 °F 70% 30.30 in 10.0 mi NE 6.9 mph - N/A   Overcast
9:15 AM 33.8 °F 28.6 °F 26.6 °F 75% 30.31 in 10.0 mi ENE 5.8 mph - N/A   Overcast
9:35 AM 33.8 °F 28.6 °F 26.6 °F 75% 30.31 in 10.0 mi NE 5.8 mph - N/A   Overcast
9:55 AM 35.6 °F 31.7 °F 26.6 °F 70% 30.31 in 10.0 mi East 4.6 mph - N/A   Overcast
10:15 AM 35.6 °F 31.7 °F 26.6 °F 70% 30.31 in 10.0 mi ENE 4.6 mph - N/A   Overcast
10:35 AM 37.4 °F 32.8 °F 26.6 °F 65% 30.31 in 10.0 mi NE 5.8 mph - N/A   Overcast
10:55 AM 37.4 °F 33.8 °F 26.6 °F 65% 30.31 in 10.0 mi ENE 4.6 mph - N/A   Overcast
11:15 AM 37.4 °F 34.9 °F 26.6 °F 65% 30.30 in 10.0 mi ENE 3.5 mph - N/A   Overcast
11:35 AM 37.4 °F 32.1 °F 26.6 °F 65% 30.30 in 10.0 mi ENE 6.9 mph - N/A   Overcast
11:55 AM 37.4 °F 32.1 °F 26.6 °F 65% 30.29 in 10.0 mi NE 6.9 mph - N/A   Overcast
12:15 PM 37.4 °F 31.4 °F 26.6 °F 65% 30.28 in 10.0 mi NE 8.1 mph - N/A   Overcast
12:35 PM 39.2 °F 35.0 °F 28.4 °F 65% 30.27 in 10.0 mi ENE 5.8 mph - N/A   Overcast
1:15 PM 39.2 °F 34.2 °F 26.6 °F 61% 30.26 in 10.0 mi ENE 6.9 mph - N/A   Overcast
1:35 PM 39.2 °F 33.6 °F 26.6 °F 61% 30.26 in 10.0 mi NE 8.1 mph - N/A   Overcast
1:55 PM 39.2 °F 33.6 °F 26.6 °F 61% 30.25 in 10.0 mi NE 8.1 mph - N/A   Overcast
2:15 PM 41.0 °F 35.8 °F 26.6 °F 57% 30.25 in 10.0 mi NE 8.1 mph - N/A   Overcast
2:35 PM 41.0 °F 37.1 °F 28.4 °F 61% 30.25 in 10.0 mi NNE 5.8 mph - N/A   Overcast
2:55 PM 41.0 °F 35.2 °F 26.6 °F 57% 30.25 in 10.0 mi ENE 9.2 mph - N/A   Overcast
3:15 PM 41.0 °F 36.4 °F 26.6 °F 57% 30.25 in 10.0 mi ENE 6.9 mph - N/A   Overcast
3:35 PM 41.0 °F 36.4 °F 26.6 °F 57% 30.25 in 10.0 mi NE 6.9 mph - N/A   Overcast
3:55 PM 39.2 °F 33.6 °F 28.4 °F 65% 30.25 in 10.0 mi NE 8.1 mph - N/A   Overcast
4:15 PM 39.2 °F 34.2 °F 28.4 °F 65% 30.26 in 10.0 mi NNE 6.9 mph - N/A   Overcast
4:35 PM 39.2 °F 33.6 °F 28.4 °F 65% 30.26 in 10.0 mi NE 8.1 mph - N/A   Overcast
4:55 PM 39.2 °F 35.0 °F 28.4 °F 65% 30.27 in 10.0 mi NE 5.8 mph - N/A   Overcast
5:15 PM 39.2 °F 35.0 °F 28.4 °F 65% 30.27 in 10.0 mi NE 5.8 mph - N/A   Overcast
5:35 PM 39.2 °F 37.0 °F 26.6 °F 61% 30.27 in 10.0 mi NNE 3.5 mph - N/A   Overcast
5:55 PM 37.4 °F 34.9 °F 28.4 °F 70% 30.28 in 10.0 mi NNE 3.5 mph - N/A   Overcast
6:15 PM 39.2 °F 35.0 °F 28.4 °F 65% 30.28 in 10.0 mi NNE 5.8 mph - N/A   Overcast
6:35 PM 37.4 °F 32.8 °F 26.6 °F 65% 30.28 in 10.0 mi NE 5.8 mph - N/A   Overcast
6:55 PM 37.4 °F 32.1 °F 26.6 °F 65% 30.28 in 10.0 mi NE 6.9 mph - N/A   Mostly Cloudy
7:15 PM 35.6 °F 30.7 °F 26.6 °F 70% 30.28 in 10.0 mi ENE 5.8 mph - N/A   Mostly Cloudy
7:35 PM 35.6 °F 31.7 °F 26.6 °F 70% 30.28 in 10.0 mi ENE 4.6 mph - N/A   Scattered Clouds
7:55 PM 35.6 °F 31.7 °F 26.6 °F 70% 30.28 in 10.0 mi NE 4.6 mph - N/A   Scattered Clouds
8:15 PM 35.6 °F 32.8 °F 26.6 °F 70% 30.28 in 10.0 mi NNE 3.5 mph - N/A   Partly Cloudy
8:35 PM 35.6 °F 32.8 °F 26.6 °F 70% 30.29 in 10.0 mi NE 3.5 mph - N/A   Clear
8:55 PM 33.8 °F 30.8 °F 26.6 °F 75% 30.29 in 10.0 mi NE 3.5 mph - N/A   Clear
9:15 PM 33.8 °F 30.8 °F 26.6 °F 75% 30.29 in 10.0 mi NE 3.5 mph - N/A   Clear
9:35 PM 33.8 °F 29.6 °F 26.6 °F 75% 30.28 in 10.0 mi NE 4.6 mph - N/A   Clear
9:55 PM 33.8 °F 30.8 °F 24.8 °F 70% 30.28 in 10.0 mi East 3.5 mph - N/A   Clear
10:15 PM 30.2 °F - 24.8 °F 80% 30.28 in 10.0 mi Calm Calm - N/A   Clear
10:35 PM 30.2 °F 26.7 °F 24.8 °F 80% 30.27 in 10.0 mi NE 3.5 mph - N/A   Clear
10:55 PM 30.2 °F 26.7 °F 26.6 °F 86% 30.27 in 10.0 mi NE 3.5 mph - N/A   Clear
11:15 PM 30.2 °F 25.4 °F 26.6 °F 86% 30.27 in 10.0 mi NE 4.6 mph - N/A   Clear
11:35 PM 32.0 °F 28.7 °F 26.6 °F 80% 30.26 in 10.0 mi NE 3.5 mph - N/A   Clear
11:55 PM 30.2 °F 26.7 °F 26.6 °F 86% 30.26 in 10.0 mi NE 3.5 mph - N/A   Clear